Location: Suzhou
(31.3110°N, 120.6180°E)
Time: 13:11:18
(UTC+08:00)

FO-29 - Pass Details

Date: 25 April 2026
Orbit: 800 x 1320 km, 98.5° (Epoch: 15 May)

Event Time Altitude Azimuth Distance (km) Brightness Sun altitude
Rises 19:20:18 0° 21° (NNE) 4,031 12.7 -10.4°
Reaches altitude 10° 19:23:14 10° 28° (NNE) 2,989 12.0 -11.0°
Maximum altitude 19:29:29 40° 97° (E) 1,463 10.0 -12.2°
Drops below altitude 10° 19:35:00 10° 165° (SSE) 2,643 11.4 -13.3°
Sets 19:37:27 0° 173° (S) 3,518 12.1 -13.8°
